Regional Weather Roundup
Issued by NWS Upton, NY

Current Version | Previous Version | Graphics & Text | Print | Product List | Glossary Off
Versions: 1 2 3 4 5 6 7 8 9 10 11 12 13 14 15 16 17 18 19 20 21 22 23 24 25 26 27 28 29 30 31 32 33 34 35 36 37 38 39 40 41 42 43 44 45 46 47

000
ASUS41 KOKX 130305
RWROKX
REGIONAL WEATHER ROUNDUP
NATIONAL WEATHER SERVICE NEW YORK NY
1100 PM EDT SAT JUL 12 2014

NOTE: "FAIR" INDICATES FEW OR NO CLOUDS BELOW 12,000 FEET WITH NO
SIGNIFICANT WEATHER AND/OR OBSTRUCTIONS TO VISIBILITY.

NYZ071-072-176-178-NJZ106-104-130400-
NEW YORK CITY METRO AREA


CITY           SKY/WX    TMP DP  RH WIND       PRES   REMARKS
CENTRAL PARK   CLOUDY    75  57  53 VRB5      30.17S
LAGUARDIA APRT MOCLDY    75  63  66 S10       30.14S
KENNEDY INTL   MOCLDY    72  68  87 S13       30.16S
NEWARK/LIBERTY MOCLDY    76  58  53 S13       30.14S
BRNX BOT. GARD   N/A    N/A N/A N/A SE10      30.16F
TETERBORO      PTCLDY    77  61  57 S7        30.12F
$$

NYZ177-179-078>081-130400-
LONG ISLAND NEW YORK

CITY           SKY/WX    TMP DP  RH WIND       PRES   REMARKS
FARMINGDALE    MOCLDY    71  68  90 SW10G20   30.17S
ISLIP          NOT AVBL
SHIRLEY        CLEAR     70  67  90 S9        30.17F
WESTHAMPTON    CLEAR     69  67  93 S6        30.18F
MONTAUK POINT    N/A     70  67  90 VRB6      30.18F
$$

NYZ052-065-067-130400-
HUDSON VALLEY

CITY           SKY/WX    TMP DP  RH WIND       PRES   REMARKS
WHITE PLAINS   MOCLDY    70  63  78 SE7       30.15S
NEWBURGH       NOT AVBL
MONTGOMERY     PTCLDY    70  61  73 CALM      30.12S
POUGHKEEPSIE   PTCLDY    75  58  55 SE6       30.11F
ALBANY         MOCLDY    77  63  61 S17G25    30.07F
$$

NJZ001-105-106-008-010-013-015-019>022-104-130400-
NEW JERSEY

CITY           SKY/WX    TMP DP  RH WIND       PRES   REMARKS
NEWARK/LIBERTY MOCLDY    76  58  53 S13       30.14S
TETERBORO      PTCLDY    77  61  57 S7        30.12F
CALDWELL       MOCLDY    76  59  55 VRB3      30.14S
MORRISTOWN     PTCLDY    75  61  60 CALM      30.14S
SOMERVILLE     PTCLDY    74  61  63 S6        30.12S
LINDEN         FAIR      77  58  52 S5        30.16S
SUSSEX         PTCLDY    71  68  90 CALM      30.13S FOG
ANDOVER          N/A     74  62  66 VRB5      30.14S
TRENTON        PTCLDY    73  64  73 S10       30.14F
MILLVILLE      CLEAR     72  69  90 VRB5      30.16F
ATLANTIC CITY  PTCLDY    71  68  90 S7        30.17S
WRIGHTSTOWN    NOT AVBL
TOMS RIVER     CLEAR     70  68  94 S3        30.17F
BELMAR         PTCLDY    72  64  78 S6        30.16F
$$

PAZ047>061-062-071-130400-
EASTERN PENNSYLVANIA

CITY           SKY/WX    TMP DP  RH WIND       PRES   REMARKS
PHILADELPHIA   MOCLDY    75  64  68 S12       30.15S
ALLENTOWN      MOCLDY    78  64  61 S7        30.12F
SCRANTON       MOCLDY    75  64  68 SW8       30.12F
$$

CTZ002-004>006-009-010-012-RIZ004-006-007-MAZ004-011-015-130400-
SOUTHERN NEW ENGLAND
 IN CT

CITY           SKY/WX    TMP DP  RH WIND       PRES   REMARKS
BRADLEY INTL   PTCLDY    74  57  55 S8        30.13S
HARTFORD       CLEAR     72  58  61 S5        30.14S
DANBURY        MOCLDY    70  58  65 S7        30.17R
WTRBRY/OXFORD  CLEAR     68  57  68 S5        30.19S
BRIDGEPORT     CLEAR     73  66  78 SW5       30.16R
MERIDEN        CLEAR     68  60  75 CALM      30.15F
NEW HAVEN      CLEAR     73  64  73 S3        30.16F
CHESTER        FAIR      68  63  83 SW6       30.17F
GROTON         CLEAR     66  63  90 S5        30.16F
WILLIMANTIC    CLEAR     70  58  65 S3        30.16F

 IN RI

CITY           SKY/WX    TMP DP  RH WIND       PRES   REMARKS
PROVIDENCE     CLEAR     67  60  78 S8        30.17S
BLOCK ISLAND   CLEAR     68  64  88 SW9       30.19S
WESTERLY       CLEAR     68  65  90 S6        30.18F

 IN MA

CITY           SKY/WX    TMP DP  RH WIND       PRES   REMARKS
BOSTON         CLEAR     72  61  68 S9        30.14S
WORCESTER      CLEAR     69  57  65 SW9       30.17S
WESTFIELD      NOT AVBL
PROVINCETOWN   CLEAR     66  63  88 S10       30.16S
NANTUCKET      CLEAR     65  58  78 S9        30.18F
$$

ANZ330-335-338-340-345-350-353-355-130400-
COASTAL MARINE OBSERVATIONS


STATION/POSITION TIME  SKY/WX   TEMP    WIND        PRES    VSBY  WAVE
                                AIR SEA DIR/SP/G                  HT/PER
                 (UTC)          (F)     (DEG/KT/KT) (MB)    (MI)  (FT/S)
NY HARB ENTRANCE NOT AVBL
4S FIRE IS       0200               70                N/A           3/ 4
23SW MTP         0300            68 68              1021.5          2/ 7
HUDSON CANYON    0300            72 72  200/  6/  8 1022.1          2/ 6
EXECUTION ROCKS  0300            71 67  190/ 12/ 16   N/A
WESTERN LI SOUND 0300            72     200/ 10/ 14   N/A           1
CENTRAL LI SOUND 0300            71 72  220/  8/ 10   N/A           1/ 3
EASTERN LI SOUND 0200            67 65  200/  4/  4   N/A
ROBBINS REEF     0300            74     190/ 15/ 18   N/A
$$


>>>>>>>>>>>>>>>>>>>>>>>>>>>> KEY <<<<<<<<<<<<<<<<<<<<<<<<<<<
>                                                          <
>     SKY/WX - SKY CONDITION/PRESENT WEATHER               <
>     TMP    - TEMPERATURE IN FAHRENHEIT                   <
>     DP     - DEWPOINT IN FAHRENHEIT                      <
>     RH     - RELATIVE HUMIDITY IN PERCENT                <
>     WIND   - DIRECTION AND SPEED IN MPH                  <
>     PRES   - MEAN SEA LEVEL PRESSURE IN INCHES OF HG     <
>     WCI    - WIND CHILL INDEX                            <
>     VSB    - VISIBILITY IN MILES                         <
>     HX     - HEAT INDEX                                  <
>     TC     - TEMPERATURE IN CELSIUS                      <
>     VRB    - VARIABLE WIND DIRECTION                     <
>                                                          <
>>>>>>>>>>>>>>>>>>>>>>>>>>>> KEY <<<<<<<<<<<<<<<<<<<<<<<<<<<




USA.gov is the U.S. government's official web portal to all federal, state and local government web resources and services.